EN

Hourly Weather Tomaszowo

Today, 23 April, Friday

Time Temperature Precipitation Wind Pressure Humidity
00:00 +2°C° 0 mm 3 mps 751 mmHg 92%
01:00 +2°C° 0 mm 3 mps 751 mmHg 94%
02:00 0°C° 0 mm 4 mps 752 mmHg 94%
03:00 0°C° 0 mm 4 mps 752 mmHg 95%
04:00 0°C° 0 mm 4 mps 752 mmHg 95%
05:00 0°C° 0 mm 4 mps 752 mmHg 93%
06:00 0°C° 0 mm 4 mps 753 mmHg 92%
07:00 +1°C° 0 mm 4 mps 753 mmHg 91%
08:00 +1°C° 0 mm 4 mps 753 mmHg 88%
09:00 +1°C° 0 mm 4 mps 753 mmHg 84%
10:00 +3°C° 0 mm 4 mps 754 mmHg 81%
11:00 +4°C° 0 mm 4 mps 754 mmHg 74%
12:00 +5°C° 0 mm 4 mps 754 mmHg 67%
13:00 +6°C° 0 mm 4 mps 754 mmHg 60%
14:00 +7°C° 0 mm 4 mps 753 mmHg 54%
15:00 +10°C° 0 mm 4 mps 753 mmHg 48%
16:00 +11°C° 0 mm 4 mps 753 mmHg 43%
17:00 +9°C° 0 mm 3 mps 753 mmHg 50%
18:00 +8°C° 0 mm 3 mps 753 mmHg 57%
19:00 +7°C° 0 mm 2 mps 753 mmHg 64%
20:00 +6°C° 0 mm 2 mps 753 mmHg 69%
21:00 +5°C° 0 mm 2 mps 753 mmHg 74%
22:00 +4°C° 0 mm 2 mps 753 mmHg 79%
23:00 +4°C° 0 mm 2 mps 753 mmHg 77%

Tomorrow, 24 April, Saturday

Time Temperature Precipitation Wind Pressure Humidity
00:00 +5°C° 0 mm 2 mps 753 mmHg 76%
01:00 +5°C° 0 mm 2 mps 753 mmHg 75%
02:00 +4°C° 0 mm 2 mps 753 mmHg 79%
03:00 +4°C° 0 mm 2 mps 753 mmHg 82%
04:00 +3°C° 0 mm 2 mps 753 mmHg 86%
05:00 +3°C° 0 mm 3 mps 754 mmHg 83%
06:00 +3°C° 0 mm 3 mps 754 mmHg 81%
07:00 +4°C° 0 mm 4 mps 754 mmHg 78%
08:00 +5°C° 0 mm 4 mps 754 mmHg 70%
09:00 +7°C° 0 mm 4 mps 754 mmHg 62%
10:00 +8°C° 0 mm 4 mps 753 mmHg 54%
11:00 +10°C° 0 mm 4 mps 753 mmHg 51%
12:00 +10°C° 0 mm 5 mps 753 mmHg 47%
13:00 +10°C° 0 mm 5 mps 753 mmHg 43%
14:00 +10°C° 0 mm 5 mps 752 mmHg 45%
15:00 +11°C° 0 mm 4 mps 752 mmHg 46%
16:00 +11°C° 0 mm 4 mps 752 mmHg 48%
17:00 +10°C° 0 mm 3 mps 752 mmHg 53%
18:00 +8°C° 0 mm 3 mps 752 mmHg 59%
19:00 +7°C° 0 mm 2 mps 752 mmHg 64%
20:00 +6°C° 0 mm 2 mps 753 mmHg 69%
21:00 +5°C° 0 mm 2 mps 753 mmHg 74%
22:00 +3°C° 0 mm 2 mps 753 mmHg 79%
23:00 +3°C° 0 mm 2 mps 753 mmHg 78%

Day after tomorrow, 25 April, Sunday

Time Temperature Precipitation Wind Pressure Humidity
00:00 +2°C° 0 mm 2 mps 753 mmHg 77%
01:00 +2°C° 0 mm 1 mps 753 mmHg 76%
02:00 +1°C° 0 mm 1 mps 753 mmHg 73%
03:00 +1°C° 0 mm 1 mps 753 mmHg 71%
04:00 -2°C° 0 mm 2 mps 754 mmHg 68%
05:00 -1°C° 0 mm 2 mps 754 mmHg 63%
06:00 +2°C° 0 mm 2 mps 754 mmHg 57%
07:00 +3°C° 0 mm 2 mps 754 mmHg 52%
08:00 +5°C° 0 mm 2 mps 754 mmHg 46%
09:00 +6°C° 0 mm 2 mps 754 mmHg 41%
10:00 +8°C° 0 mm 2 mps 754 mmHg 35%
11:00 +9°C° 0 mm 2 mps 754 mmHg 33%
12:00 +9°C° 0 mm 2 mps 753 mmHg 32%
13:00 +10°C° 0 mm 2 mps 753 mmHg 30%
14:00 +10°C° 0 mm 3 mps 753 mmHg 30%
15:00 +10°C° 0 mm 3 mps 753 mmHg 31%
16:00 +10°C° 0 mm 4 mps 752 mmHg 31%
17:00 +9°C° 0 mm 3 mps 752 mmHg 38%
18:00 +7°C° 0 mm 2 mps 752 mmHg 45%
19:00 +6°C° 0 mm 1 mps 752 mmHg 52%
20:00 +5°C° 0 mm 1 mps 752 mmHg 57%
21:00 +4°C° 0 mm 1 mps 752 mmHg 61%
22:00 +3°C° 0 mm 1 mps 752 mmHg 66%
23:00 +3°C° 0 mm 1 mps 752 mmHg 68%

26 April, Monday

Time Temperature Precipitation Wind Pressure Humidity
00:00 +2°C° 0 mm 1 mps 752 mmHg 70%
01:00 +2°C° 0 mm 1 mps 752 mmHg 72%
02:00 +1°C° 0 mm 1 mps 751 mmHg 73%
03:00 +1°C° 0 mm 1 mps 751 mmHg 73%
04:00 +1°C° 0 mm 1 mps 751 mmHg 74%
05:00 +2°C° 0 mm 1 mps 751 mmHg 68%
06:00 +4°C° 0 mm 1 mps 751 mmHg 62%
07:00 +6°C° 0 mm 1 mps 750 mmHg 56%
08:00 +7°C° 0 mm 1 mps 750 mmHg 52%
09:00 +9°C° 0 mm 1 mps 750 mmHg 47%
10:00 +11°C° 0 mm 1 mps 750 mmHg 43%
11:00 +12°C° 0 mm 2 mps 749 mmHg 39%
12:00 +12°C° 0 mm 2 mps 749 mmHg 36%
13:00 +13°C° 0 mm 2 mps 748 mmHg 33%
14:00 +13°C° 0 mm 2 mps 748 mmHg 33%
15:00 +13°C° 0 mm 2 mps 748 mmHg 33%
16:00 +13°C° 0 mm 2 mps 747 mmHg 32%
17:00 +10°C° 0 mm 2 mps 747 mmHg 40%
18:00 +8°C° 0 mm 2 mps 747 mmHg 48%
19:00 +7°C° 0 mm 2 mps 746 mmHg 55%
20:00 +6°C° 0 mm 2 mps 746 mmHg 59%
21:00 +5°C° 0 mm 2 mps 746 mmHg 63%
22:00 +4°C° 0 mm 2 mps 746 mmHg 66%
23:00 +4°C° 0 mm 2 mps 746 mmHg 67%

27 April, Tuesday

Time Temperature Precipitation Wind Pressure Humidity
00:00 +2°C° 0 mm 3 mps 746 mmHg 68%
01:00 +2°C° 0 mm 3 mps 746 mmHg 69%
02:00 +2°C° 0 mm 3 mps 745 mmHg 70%
03:00 +1°C° 0 mm 3 mps 744 mmHg 72%
04:00 +1°C° 0 mm 3 mps 744 mmHg 73%
05:00 +2°C° 0 mm 3 mps 744 mmHg 69%
06:00 +3°C° 0 mm 4 mps 744 mmHg 65%
07:00 +4°C° 0 mm 4 mps 744 mmHg 61%
08:00 +6°C° 0 mm 4 mps 744 mmHg 56%
09:00 +7°C° 0 mm 5 mps 743 mmHg 51%
10:00 +9°C° 0 mm 5 mps 743 mmHg 46%
11:00 +10°C° 0 mm 5 mps 742 mmHg 44%
12:00 +10°C° 0 mm 5 mps 742 mmHg 43%
13:00 +12°C° 0 mm 5 mps 741 mmHg 42%
14:00 +12°C° 0 mm 5 mps 741 mmHg 43%
15:00 +12°C° 0 mm 5 mps 740 mmHg 45%
16:00 +12°C° 0 mm 4 mps 740 mmHg 46%
17:00 +11°C° 0 mm 4 mps 740 mmHg 50%
18:00 +10°C° 0 mm 4 mps 739 mmHg 53%
19:00 +9°C° 0 mm 3 mps 739 mmHg 57%
20:00 +8°C° 0 mm 3 mps 739 mmHg 62%
21:00 +8°C° 0 mm 3 mps 739 mmHg 66%
22:00 +7°C° 0 mm 3 mps 739 mmHg 71%
23:00 +7°C° 0.1 mm 3 mps 738 mmHg 77%

28 April, Wednesday

Time Temperature Precipitation Wind Pressure Humidity
00:00 +5°C° 0.1 mm 3 mps 738 mmHg 83%
01:00 +5°C° 0.1 mm 3 mps 738 mmHg 89%
02:00 +6°C° 0.1 mm 2 mps 738 mmHg 90%
03:00 +6°C° 0.1 mm 2 mps 738 mmHg 92%
04:00 +5°C° 0.1 mm 2 mps 737 mmHg 93%
05:00 +5°C° 0.1 mm 2 mps 737 mmHg 93%
06:00 +5°C° 0.1 mm 2 mps 738 mmHg 93%
07:00 +5°C° 0.1 mm 2 mps 738 mmHg 92%
08:00 +5°C° 0.1 mm 2 mps 738 mmHg 91%
09:00 +6°C° 0.1 mm 2 mps 738 mmHg 89%
10:00 +6°C° 0.1 mm 2 mps 738 mmHg 87%
11:00 +7°C° 0 mm 2 mps 738 mmHg 86%
12:00 +8°C° 0 mm 1 mps 738 mmHg 85%
13:00 +9°C° 0 mm 1 mps 738 mmHg 84%
14:00 +9°C° 0.1 mm 1 mps 738 mmHg 84%
15:00 +9°C° 0.1 mm 1 mps 738 mmHg 84%
16:00 +9°C° 0.1 mm 1 mps 738 mmHg 84%
17:00 +9°C° 0.1 mm 1 mps 738 mmHg 87%
18:00 +8°C° 0.1 mm 1 mps 738 mmHg 90%
19:00 +8°C° 0.1 mm 1 mps 738 mmHg 92%
20:00 +7°C° 0 mm 1 mps 738 mmHg 93%
21:00 +7°C° 0 mm 1 mps 738 mmHg 94%
22:00 +5°C° 0 mm 0 mps 739 mmHg 95%
23:00 +6°C° 0 mm 1 mps 739 mmHg 95%
Show more

We Need Your Consent

Meteoprog and our Service Providers may store and access personal data such as cookies, device identifiers or other similar technologies on your device and process such data to personalise content and ads, as well as provide social media features and to analyse the traffic.

  • Store and/or access information on your device

    Cookies, device identifiers or other information can be stored or accessed on your device for the purposes indicated above.

  • Personalised ads and content, ad and content measurement, audience insights, and products development

    Ads and content can be personalised based on a profile. More data can be added to better personalise ads and content. Ad and content performance can be measured. Insights about the audience who saw the ads and content can be derived. Such data can be used to develop or improve user’s experience, systems and software.

By clicking ‘I Agree’ you will allow the use of indicated cookies, device identifiers, web beacons or other similar technologies. Your settings can be changed in the browser on your device.

For certain purposes, legitimate interests may be relied on, rather than consent. You can read more about this in our Privacy and Cookie Policy.